Zurück zum Katalog

CZ-6A DEB

AktivPO
NORAD 60790·DEBRIS·🇨🇳 China

Gestartet Aug 6, 2024 von Taiyuan Satellite Launch Center

Loading…

Nächste Überflüge (nächste 24 Stunden)

TLE

AktuellSource: Space-Track

Epoche: Sep 14, 2026, 05:06 UTC

1 60790U 24140FR  26257.21306468  .00000439  00000-0  11833-3 0  9990
2 60790  88.8369 245.9427 0076556   6.3696 353.8461 14.44429517110124

Verfolge CZ-6A DEB in Echtzeit mit AllMySat

Download on the App Store